| time (UTC) | temp F | wind direction | speed MPH | gust MPH | rain 1hr in | rain 24hr in | rain mn in | humidity % | barometer mb |
| 20260904105306 | 96 | 305 | 0.0 | 3.0 | 0.00 | 0.00 | 0.00 | 44 | 1018.1 |
| 20260904104806 | 96 | 286 | 1.0 | 2.0 | 0.00 | 0.00 | 0.00 | 44 | 1018.2 |
| 20260904104306 | 96 | 284 | 0.0 | 1.0 | 0.00 | 0.00 | 0.00 | 45 | 1018.3 |
| 20260904103305 | 95 | 321 | 1.0 | 2.0 | 0.00 | 0.00 | 0.00 | 46 | 1018.4 |
| 20260904102805 | 95 | 284 | 0.0 | 3.0 | 0.00 | 0.00 | 0.00 | 46 | 1018.4 |
| 20260904101805 | 95 | 322 | 1.0 | 3.0 | 0.00 | 0.00 | 0.00 | 46 | 1018.5 |
| 20260904101306 | 94 | 329 | 0.0 | 0.0 | 0.00 | 0.00 | 0.00 | 47 | 1018.6 |
| 20260904100805 | 94 | 329 | 0.0 | 2.0 | 0.00 | 0.00 | 0.00 | 47 | 1018.6 |
| 20260904100306 | 94 | 320 | 0.0 | 1.0 | 0.00 | 0.00 | 0.00 | 48 | 1018.7 |
| 20260904095806 | 93 | 317 | 1.0 | 3.0 | 0.00 | 0.00 | 0.00 | 50 | 1018.8 |
| 20260904095306 | 92 | 322 | 0.0 | 1.0 | 0.00 | 0.00 | 0.00 | 51 | 1018.9 |
| 20260904094305 | 90 | 335 | 0.0 | 3.0 | 0.00 | 0.00 | 0.00 | 53 | 1018.9 |
| 20260904093805 | 90 | 327 | 0.0 | 2.0 | 0.00 | 0.00 | 0.00 | 53 | 1018.9 |
| 20260904093305 | 89 | 323 | 1.0 | 3.0 | 0.00 | 0.00 | 0.00 | 54 | 1018.9 |
| 20260904092806 | 88 | 284 | 0.0 | 1.0 | 0.00 | 0.00 | 0.00 | 55 | 1019.0 |
| 20260904092306 | 88 | 284 | 0.0 | 2.0 | 0.00 | 0.00 | 0.00 | 56 | 1019.0 |
| 20260904091805 | 88 | 286 | 1.0 | 3.0 | 0.00 | 0.00 | 0.00 | 55 | 1019.0 |
| 20260904091305 | 87 | 334 | 0.0 | 2.0 | 0.00 | 0.00 | 0.00 | 56 | 1019.0 |
| 20260904090805 | 86 | 328 | 0.0 | 2.0 | 0.00 | 0.00 | 0.00 | 58 | 1019.0 |
| 20260904090306 | 85 | 250 | 1.0 | 3.0 | 0.00 | 0.00 | 0.00 | 59 | 1019.0 |
| 20260904085306 | 84 | 270 | 2.0 | 6.0 | 0.00 | 0.00 | 0.00 | 61 | 1019.0 |
| 20260904084805 | 84 | 261 | 2.0 | 6.0 | 0.00 | 0.00 | 0.00 | 61 | 1019.0 |
| 20260904084305 | 84 | 320 | 0.0 | 3.0 | 0.00 | 0.00 | 0.00 | 62 | 1019.0 |
| 20260904083806 | 83 | 274 | 1.0 | 5.0 | 0.00 | 0.00 | 0.00 | 63 | 1019.1 |
| 20260904083305 | 83 | 280 | 1.0 | 3.0 | 0.00 | 0.00 | 0.00 | 64 | 1019.0 |
| 20260904082806 | 82 | 259 | 2.0 | 10.0 | 0.00 | 0.00 | 0.00 | 64 | 1019.1 |
| 20260904082306 | 82 | 271 | 3.0 | 7.0 | 0.00 | 0.00 | 0.00 | 65 | 1019.0 |
| 20260904081805 | 81 | 276 | 1.0 | 6.0 | 0.00 | 0.00 | 0.00 | 66 | 1019.0 |
| 20260904081306 | 81 | 283 | 3.0 | 5.0 | 0.00 | 0.00 | 0.00 | 67 | 1019.0 |
| 20260904080305 | 80 | 279 | 2.0 | 5.0 | 0.00 | 0.00 | 0.00 | 68 | 1019.0 |
| 20260904075806 | 79 | 277 | 2.0 | 6.0 | 0.00 | 0.00 | 0.00 | 69 | 1018.9 |
| 20260904075307 | 79 | 275 | 3.0 | 6.0 | 0.00 | 0.00 | 0.00 | 69 | 1019.0 |
| 20260904074805 | 79 | 274 | 2.0 | 8.0 | 0.00 | 0.00 | 0.00 | 70 | 1019.0 |
| 20260904073805 | 78 | 269 | 1.0 | 5.0 | 0.00 | 0.00 | 0.00 | 72 | 1019.0 |
| 20260904072805 | 77 | 271 | 3.0 | 6.0 | 0.00 | 0.00 | 0.00 | 74 | 1019.0 |
| 20260904072306 | 76 | 269 | 4.0 | 10.0 | 0.00 | 0.00 | 0.00 | 75 | 1019.1 |
| 20260904071805 | 76 | 265 | 3.0 | 6.0 | 0.00 | 0.00 | 0.00 | 76 | 1019.1 |
| 20260904071305 | 75 | 267 | 1.0 | 6.0 | 0.00 | 0.00 | 0.00 | 77 | 1019.1 |
| 20260904070306 | 74 | 267 | 2.0 | 5.0 | 0.00 | 0.00 | 0.00 | 79 | 1019.2 |
| 20260904065805 | 74 | 266 | 1.0 | 6.0 | 0.00 | 0.00 | 0.00 | 79 | 1019.2 |
| 20260904065306 | 74 | 267 | 1.0 | 5.0 | 0.00 | 0.00 | 0.00 | 80 | 1019.2 |
| 20260904064806 | 73 | 281 | 2.0 | 3.0 | 0.00 | 0.00 | 0.00 | 81 | 1019.2 |
| 20260904064306 | 73 | 283 | 2.0 | 6.0 | 0.00 | 0.00 | 0.00 | 81 | 1019.2 |
| 20260904062806 | 73 | 275 | 1.0 | 3.0 | 0.00 | 0.00 | 0.00 | 82 | 1019.1 |
| 20260904062306 | 73 | 324 | 1.0 | 3.0 | 0.00 | 0.00 | 0.00 | 83 | 1019.1 |
| 20260904061806 | 73 | 269 | 1.0 | 3.0 | 0.00 | 0.00 | 0.00 | 83 | 1019.0 |
| 20260904061306 | 73 | 268 | 0.0 | 2.0 | 0.00 | 0.00 | 0.00 | 83 | 1019.0 |
| 20260904060805 | 72 | 286 | 0.0 | 1.0 | 0.00 | 0.00 | 0.00 | 83 | 1018.9 |
| 20260904060306 | 72 | 280 | 1.0 | 2.0 | 0.00 | 0.00 | 0.00 | 84 | 1018.9 |
| 20260904055805 | 72 | 273 | 0.0 | 1.0 | 0.00 | 0.00 | 0.00 | 85 | 1018.9 |
| 20260904055306 | 72 | 275 | 0.0 | 0.0 | 0.00 | 0.00 | 0.00 | 85 | 1018.9 |
| 20260904054805 | 72 | 275 | 0.0 | 1.0 | 0.00 | 0.00 | 0.00 | 85 | 1018.8 |
| 20260904052805 | 72 | 337 | 0.0 | 0.0 | 0.00 | 0.00 | 0.00 | 86 | 1018.9 |
| 20260904052307 | 72 | 337 | 0.0 | 0.0 | 0.00 | 0.00 | 0.00 | 87 | 1018.9 |
| 20260904051306 | 72 | 337 | 0.0 | 0.0 | 0.00 | 0.00 | 0.00 | 86 | 1018.9 |
| 20260904050806 | 72 | 337 | 0.0 | 0.0 | 0.00 | 0.00 | 0.00 | 86 | 1018.8 |
| 20260904050306 | 72 | 336 | 0.0 | 0.0 | 0.00 | 0.00 | 0.00 | 86 | 1018.8 |
| 20260904045307 | 72 | 337 | 0.0 | 0.0 | 0.00 | 0.00 | 0.00 | 86 | 1018.8 |
| 20260904044806 | 72 | 338 | 0.0 | 0.0 | 0.00 | 0.00 | 0.00 | 86 | 1018.9 |
| 20260904044306 | 73 | 338 | 0.0 | 0.0 | 0.00 | 0.00 | 0.00 | 86 | 1018.9 |
| 20260904043806 | 73 | 333 | 0.0 | 0.0 | 0.00 | 0.00 | 0.00 | 85 | 1018.8 |
| 20260904043306 | 73 | 249 | 0.0 | 1.0 | 0.00 | 0.00 | 0.00 | 85 | 1018.9 |
| 20260904042806 | 73 | 250 | 0.0 | 1.0 | 0.00 | 0.00 | 0.00 | 85 | 1018.8 |
| 20260904041805 | 73 | 286 | 0.0 | 0.0 | 0.00 | 0.00 | 0.00 | 83 | 1019.0 |
| 20260904041306 | 74 | 286 | 0.0 | 0.0 | 0.00 | 0.00 | 0.00 | 83 | 1019.1 |
| 20260904040306 | 74 | 311 | 0.0 | 1.0 | 0.00 | 0.00 | 0.00 | 83 | 1019.1 |
| 20260904035806 | 74 | 271 | 0.0 | 2.0 | 0.00 | 0.00 | 0.00 | 83 | 1019.1 |
| 20260904034805 | 74 | 271 | 2.0 | 5.0 | 0.00 | 0.00 | 0.00 | 83 | 1019.2 |
| 20260904034306 | 74 | 268 | 2.0 | 6.0 | 0.00 | 0.00 | 0.00 | 83 | 1019.2 |
| 20260904033806 | 74 | 274 | 3.0 | 6.0 | 0.00 | 0.00 | 0.00 | 83 | 1019.3 |
| 20260904033305 | 74 | 271 | 2.0 | 6.0 | 0.00 | 0.00 | 0.00 | 83 | 1019.4 |
| 20260904032807 | 74 | 261 | 1.0 | 3.0 | 0.00 | 0.00 | 0.00 | 83 | 1019.4 |
| 20260904032306 | 74 | 271 | 2.0 | 3.0 | 0.00 | 0.00 | 0.00 | 83 | 1019.4 |
| 20260904031806 | 74 | 271 | 0.0 | 3.0 | 0.00 | 0.00 | 0.00 | 83 | 1019.4 |
| 20260904031306 | 74 | 296 | 0.0 | 3.0 | 0.00 | 0.00 | 0.00 | 83 | 1019.4 |
| 20260904030806 | 74 | 271 | 2.0 | 5.0 | 0.00 | 0.00 | 0.00 | 83 | 1019.5 |
| 20260904030306 | 74 | 277 | 1.0 | 3.0 | 0.00 | 0.00 | 0.00 | 83 | 1019.5 |
| 20260904025806 | 74 | 268 | 2.0 | 5.0 | 0.00 | 0.00 | 0.00 | 82 | 1019.5 |
| 20260904025307 | 74 | 282 | 1.0 | 5.0 | 0.00 | 0.00 | 0.00 | 82 | 1019.6 |
| 20260904024806 | 74 | 272 | 1.0 | 3.0 | 0.00 | 0.00 | 0.00 | 82 | 1019.6 |
| 20260904024305 | 74 | 270 | 1.0 | 3.0 | 0.00 | 0.00 | 0.00 | 82 | 1019.6 |
| 20260904023805 | 74 | 279 | 1.0 | 3.0 | 0.00 | 0.00 | 0.00 | 82 | 1019.7 |
| 20260904022806 | 75 | 258 | 0.0 | 1.0 | 0.00 | 0.00 | 0.00 | 82 | 1019.7 |
| 20260904022306 | 75 | 257 | 0.0 | 1.0 | 0.00 | 0.00 | 0.00 | 82 | 1019.7 |
| 20260904021305 | 75 | 277 | 1.0 | 3.0 | 0.00 | 0.00 | 0.00 | 82 | 1019.7 |
| 20260904020806 | 75 | 275 | 0.0 | 2.0 | 0.00 | 0.00 | 0.00 | 83 | 1019.8 |
| 20260904020305 | 75 | 272 | 0.0 | 3.0 | 0.00 | 0.00 | 0.00 | 83 | 1019.8 |
| 20260904015806 | 75 | 276 | 0.0 | 1.0 | 0.00 | 0.00 | 0.00 | 83 | 1019.8 |
| 20260904015307 | 75 | 255 | 1.0 | 3.0 | 0.00 | 0.00 | 0.00 | 83 | 1019.9 |
| 20260904014806 | 75 | 272 | 1.0 | 3.0 | 0.00 | 0.00 | 0.00 | 83 | 1019.9 |
| 20260904014306 | 75 | 273 | 1.0 | 3.0 | 0.00 | 0.00 | 0.00 | 83 | 1020.1 |
| 20260904013805 | 75 | 264 | 1.0 | 3.0 | 0.00 | 0.00 | 0.00 | 83 | 1020.1 |
| 20260904013307 | 75 | 276 | 0.0 | 3.0 | 0.00 | 0.00 | 0.00 | 83 | 1020.1 |
| 20260904012806 | 75 | 273 | 0.0 | 3.0 | 0.00 | 0.00 | 0.00 | 83 | 1020.1 |
| 20260904012306 | 75 | 263 | 0.0 | 5.0 | 0.00 | 0.00 | 0.00 | 83 | 1020.2 |
| 20260904011807 | 75 | 259 | 1.0 | 5.0 | 0.00 | 0.00 | 0.00 | 83 | 1020.2 |
| 20260904010804 | 75 | 322 | 1.0 | 3.0 | 0.00 | 0.00 | 0.00 | 83 | 1020.3 |
| 20260904010305 | 75 | 264 | 1.0 | 3.0 | 0.00 | 0.00 | 0.00 | 83 | 1020.4 |
| 20260904005306 | 75 | 274 | 0.0 | 2.0 | 0.00 | 0.00 | 0.00 | 84 | 1020.3 |
| 20260904004804 | 75 | 254 | 0.0 | 0.0 | 0.00 | 0.00 | 0.00 | 84 | 1020.3 |
| 20260904004305 | 75 | 255 | 0.0 | 0.0 | 0.00 | 0.00 | 0.00 | 84 | 1020.4 |
| 20260904003804 | 75 | 255 | 0.0 | 0.0 | 0.00 | 0.00 | 0.00 | 84 | 1020.4 |
| 20260904003305 | 76 | 255 | 0.0 | 0.0 | 0.00 | 0.00 | 0.00 | 83 | 1020.5 |
| 20260904002804 | 76 | 255 | 0.0 | 0.0 | 0.00 | 0.00 | 0.00 | 83 | 1020.6 |
| 20260904002306 | 76 | 255 | 0.0 | 1.0 | 0.00 | 0.00 | 0.00 | 83 | 1020.6 |
| 20260904001804 | 76 | 272 | 0.0 | 1.0 | 0.00 | 0.00 | 0.00 | 83 | 1020.6 |
| 20260904001305 | 76 | 264 | 0.0 | 2.0 | 0.00 | 0.00 | 0.00 | 84 | 1020.6 |
| 20260904000804 | 76 | 274 | 0.0 | 2.0 | 0.00 | 0.00 | 0.00 | 83 | 1020.7 |
| 20260904000304 | 76 | 281 | 0.0 | 0.0 | 0.00 | 0.00 | 0.00 | 83 | 1020.6 |
| 20260903235804 | 76 | 281 | 0.0 | 0.0 | 0.00 | 0.00 | 0.00 | 83 | 1020.7 |
| 20260903235305 | 76 | 283 | 0.0 | 0.0 | 0.00 | 0.00 | 0.00 | 83 | 1020.6 |
| 20260903234804 | 76 | 283 | 0.0 | 0.0 | 0.00 | 0.00 | 0.00 | 82 | 1020.8 |
| 20260903234304 | 76 | 283 | 0.0 | 0.0 | 0.00 | 0.00 | 0.00 | 82 | 1020.8 |
| 20260903233804 | 76 | 283 | 0.0 | 0.0 | 0.00 | 0.00 | 0.00 | 81 | 1020.8 |
| 20260903233304 | 77 | 283 | 0.0 | 0.0 | 0.00 | 0.00 | 0.00 | 81 | 1020.8 |
| 20260903232804 | 77 | 283 | 0.0 | 0.0 | 0.00 | 0.00 | 0.00 | 81 | 1020.8 |
| 20260903231804 | 77 | 283 | 0.0 | 0.0 | 0.00 | 0.00 | 0.00 | 81 | 1020.8 |
| 20260903230804 | 77 | 334 | 0.0 | 0.0 | 0.00 | 0.00 | 0.00 | 81 | 1020.8 |
| 20260903225306 | 78 | 333 | 0.0 | 1.0 | 0.00 | 0.00 | 0.00 | 81 | 1020.9 |
| 20260903224804 | 78 | 327 | 0.0 | 0.0 | 0.00 | 0.00 | 0.00 | 80 | 1020.9 |
| 20260903224305 | 78 | 327 | 0.0 | 0.0 | 0.00 | 0.00 | 0.00 | 81 | 1020.9 |
| 20260903223304 | 78 | 327 | 0.0 | 0.0 | 0.00 | 0.00 | 0.00 | 80 | 1020.9 |
| 20260903222805 | 78 | 327 | 0.0 | 0.0 | 0.00 | 0.00 | 0.00 | 80 | 1020.9 |
| 20260903222306 | 78 | 327 | 0.0 | 0.0 | 0.00 | 0.00 | 0.00 | 81 | 1020.9 |
| 20260903221304 | 78 | 327 | 0.0 | 0.0 | 0.00 | 0.00 | 0.00 | 79 | 1020.9 |
| 20260903220812 | 78 | 327 | 0.0 | 0.0 | 0.00 | 0.00 | 0.00 | 78 | 1020.9 |
| 20260903220305 | 78 | 327 | 0.0 | 0.0 | 0.00 | 0.00 | 0.00 | 78 | 1020.9 |
| 20260903215306 | 78 | 327 | 0.0 | 0.0 | 0.00 | 0.00 | 0.00 | 78 | 1020.9 |
| 20260903214804 | 78 | 327 | 0.0 | 0.0 | 0.00 | 0.00 | 0.00 | 78 | 1021.0 |
| 20260903213804 | 79 | 327 | 0.0 | 1.0 | 0.00 | 0.00 | 0.00 | 78 | 1020.9 |
| 20260903212804 | 79 | 328 | 0.0 | 1.0 | 0.00 | 0.00 | 0.00 | 78 | 1021.0 |
| 20260903211804 | 79 | 323 | 0.0 | 0.0 | 0.00 | 0.00 | 0.00 | 77 | 1021.0 |
| 20260903210805 | 79 | 323 | 0.0 | 0.0 | 0.00 | 0.00 | 0.00 | 77 | 1021.0 |
| 20260903210304 | 79 | 323 | 0.0 | 0.0 | 0.00 | 0.00 | 0.00 | 76 | 1020.9 |
| 20260903205804 | 80 | 323 | 0.0 | 0.0 | 0.00 | 0.00 | 0.00 | 76 | 1021.0 |
| 20260903205306 | 80 | 323 | 0.0 | 0.0 | 0.00 | 0.00 | 0.00 | 76 | 1021.0 |
| 20260903204804 | 80 | 325 | 0.0 | 1.0 | 0.00 | 0.00 | 0.00 | 76 | 1021.1 |
| 20260903204304 | 80 | 330 | 0.0 | 1.0 | 0.00 | 0.00 | 0.00 | 75 | 1021.1 |
| 20260903203805 | 80 | 331 | 0.0 | 1.0 | 0.00 | 0.00 | 0.00 | 75 | 1021.0 |
| 20260903203304 | 80 | 328 | 0.0 | 1.0 | 0.00 | 0.00 | 0.00 | 75 | 1021.1 |
| 20260903202306 | 80 | 327 | 0.0 | 1.0 | 0.00 | 0.00 | 0.00 | 74 | 1021.0 |
| 20260903201804 | 80 | 321 | 0.0 | 1.0 | 0.00 | 0.00 | 0.00 | 73 | 1021.0 |
| 20260903201305 | 80 | 323 | 0.0 | 1.0 | 0.00 | 0.00 | 0.00 | 73 | 1021.0 |
| 20260903200804 | 80 | 324 | 0.0 | 1.0 | 0.00 | 0.00 | 0.00 | 72 | 1020.9 |
| 20260903200304 | 80 | 324 | 0.0 | 2.0 | 0.00 | 0.00 | 0.00 | 72 | 1020.9 |
| 20260903195805 | 81 | 324 | 0.0 | 0.0 | 0.00 | 0.00 | 0.00 | 72 | 1020.9 |
| 20260903195306 | 81 | 327 | 0.0 | 0.0 | 0.00 | 0.00 | 0.00 | 71 | 1020.8 |
| 20260903194804 | 81 | 327 | 0.0 | 1.0 | 0.00 | 0.00 | 0.00 | 71 | 1020.8 |
| 20260903194304 | 81 | 327 | 0.0 | 0.0 | 0.00 | 0.00 | 0.00 | 70 | 1020.7 |
| 20260903193805 | 81 | 327 | 0.0 | 2.0 | 0.00 | 0.00 | 0.00 | 70 | 1020.7 |
| 20260903193304 | 81 | 326 | 0.0 | 2.0 | 0.00 | 0.00 | 0.00 | 70 | 1020.6 |
| 20260903192804 | 81 | 303 | 0.0 | 2.0 | 0.00 | 0.00 | 0.00 | 70 | 1020.5 |
| 20260903192306 | 81 | 324 | 0.0 | 3.0 | 0.00 | 0.00 | 0.00 | 69 | 1020.4 |
| 20260903191805 | 82 | 325 | 0.0 | 1.0 | 0.00 | 0.00 | 0.00 | 68 | 1020.4 |
| 20260903191304 | 82 | 325 | 0.0 | 2.0 | 0.00 | 0.00 | 0.00 | 68 | 1020.3 |
| 20260903185804 | 82 | 322 | 1.0 | 3.0 | 0.00 | 0.00 | 0.00 | 67 | 1020.1 |
| 20260903185306 | 82 | 324 | 2.0 | 3.0 | 0.00 | 0.00 | 0.00 | 67 | 1020.0 |
| 20260903184804 | 82 | 331 | 0.0 | 1.0 | 0.00 | 0.00 | 0.00 | 66 | 1019.9 |
| 20260903184304 | 82 | 331 | 0.0 | 3.0 | 0.00 | 0.00 | 0.00 | 66 | 1019.8 |
| 20260903183804 | 83 | 323 | 1.0 | 3.0 | 0.00 | 0.00 | 0.00 | 66 | 1019.8 |
| 20260903183304 | 83 | 326 | 2.0 | 5.0 | 0.00 | 0.00 | 0.00 | 65 | 1019.8 |
| 20260903182306 | 83 | 250 | 1.0 | 7.0 | 0.00 | 0.00 | 0.00 | 64 | 1019.7 |
| 20260903181805 | 83 | 324 | 1.0 | 5.0 | 0.00 | 0.00 | 0.00 | 63 | 1019.7 |
| 20260903181304 | 84 | 313 | 1.0 | 6.0 | 0.00 | 0.00 | 0.00 | 63 | 1019.7 |
| 20260903180304 | 84 | 297 | 1.0 | 7.0 | 0.00 | 0.00 | 0.00 | 62 | 1019.6 |
| 20260903175804 | 85 | 321 | 3.0 | 7.0 | 0.00 | 0.00 | 0.00 | 61 | 1019.6 |
| 20260903175306 | 85 | 321 | 2.0 | 7.0 | 0.00 | 0.00 | 0.00 | 60 | 1019.5 |
| 20260903174304 | 86 | 302 | 2.0 | 5.0 | 0.00 | 0.00 | 0.00 | 59 | 1019.5 |
| 20260903173304 | 87 | 319 | 3.0 | 7.0 | 0.00 | 0.00 | 0.00 | 57 | 1019.4 |
| 20260903172805 | 88 | 322 | 1.0 | 7.0 | 0.00 | 0.00 | 0.00 | 56 | 1019.4 |
| 20260903172306 | 88 | 307 | 2.0 | 5.0 | 0.00 | 0.00 | 0.00 | 55 | 1019.4 |
| 20260903171804 | 88 | 313 | 1.0 | 5.0 | 0.00 | 0.00 | 0.00 | 55 | 1019.3 |
| 20260903171305 | 88 | 328 | 1.0 | 5.0 | 0.00 | 0.00 | 0.00 | 54 | 1019.2 |
| 20260903170305 | 89 | 325 | 3.0 | 7.0 | 0.00 | 0.00 | 0.00 | 56 | 1019.3 |
| 20260903165305 | 89 | 315 | 2.0 | 7.0 | 0.00 | 0.00 | 0.00 | 55 | 1019.3 |
| 20260903164804 | 89 | 329 | 2.0 | 6.0 | 0.00 | 0.00 | 0.00 | 55 | 1019.3 |
| 20260903164305 | 89 | 316 | 2.0 | 9.0 | 0.00 | 0.00 | 0.00 | 55 | 1019.3 |
| 20260903163804 | 89 | 317 | 2.0 | 6.0 | 0.00 | 0.00 | 0.00 | 55 | 1019.4 |
| 20260903163304 | 90 | 315 | 5.0 | 10.0 | 0.00 | 0.00 | 0.00 | 54 | 1019.5 |
| 20260903162805 | 90 | 298 | 3.0 | 6.0 | 0.00 | 0.00 | 0.00 | 54 | 1019.4 |
| 20260903162306 | 90 | 316 | 3.0 | 8.0 | 0.00 | 0.00 | 0.00 | 54 | 1019.4 |
| 20260903161804 | 90 | 320 | 2.0 | 8.0 | 0.00 | 0.00 | 0.00 | 54 | 1019.4 |
| 20260903160805 | 90 | 315 | 2.0 | 8.0 | 0.00 | 0.00 | 0.00 | 54 | 1019.4 |
| 20260903160304 | 90 | 296 | 3.0 | 10.0 | 0.00 | 0.00 | 0.00 | 54 | 1019.4 |
| 20260903155804 | 90 | 322 | 3.0 | 8.0 | 0.00 | 0.00 | 0.00 | 54 | 1019.4 |
| 20260903155306 | 90 | 309 | 5.0 | 8.0 | 0.00 | 0.00 | 0.00 | 54 | 1019.4 |
| 20260903154805 | 91 | 308 | 3.0 | 8.0 | 0.00 | 0.00 | 0.00 | 54 | 1019.3 |
| 20260903154304 | 90 | 306 | 3.0 | 9.0 | 0.00 | 0.00 | 0.00 | 54 | 1019.4 |
| 20260903153805 | 90 | 317 | 3.0 | 10.0 | 0.00 | 0.00 | 0.00 | 53 | 1019.3 |
| 20260903153304 | 91 | 307 | 3.0 | 8.0 | 0.00 | 0.00 | 0.00 | 52 | 1019.4 |
| 20260903152306 | 91 | 299 | 3.0 | 8.0 | 0.00 | 0.00 | 0.00 | 52 | 1019.4 |
| 20260903151805 | 91 | 314 | 4.0 | 12.0 | 0.00 | 0.00 | 0.00 | 51 | 1019.3 |
| 20260903151305 | 92 | 315 | 5.0 | 12.0 | 0.00 | 0.00 | 0.00 | 50 | 1019.3 |
| 20260903150805 | 92 | 318 | 3.0 | 8.0 | 0.00 | 0.00 | 0.00 | 49 | 1019.2 |
| 20260903150305 | 93 | 310 | 5.0 | 10.0 | 0.00 | 0.00 | 0.00 | 48 | 1019.2 |
| 20260903145805 | 93 | 309 | 5.0 | 9.0 | 0.00 | 0.00 | 0.00 | 47 | 1019.4 |
| 20260903145306 | 94 | 316 | 3.0 | 8.0 | 0.00 | 0.00 | 0.00 | 46 | 1019.4 |
| 20260903144804 | 94 | 315 | 3.0 | 10.0 | 0.00 | 0.00 | 0.00 | 45 | 1019.4 |
| 20260903144305 | 94 | 316 | 4.0 | 7.0 | 0.00 | 0.00 | 0.00 | 44 | 1019.4 |
| 20260903143805 | 94 | 309 | 2.0 | 7.0 | 0.00 | 0.00 | 0.00 | 43 | 1019.4 |
| 20260903143304 | 95 | 316 | 4.0 | 8.0 | 0.00 | 0.00 | 0.00 | 42 | 1019.4 |
| 20260903142805 | 95 | 316 | 5.0 | 9.0 | 0.00 | 0.00 | 0.00 | 41 | 1019.4 |
| 20260903142306 | 95 | 323 | 2.0 | 7.0 | 0.00 | 0.00 | 0.00 | 40 | 1019.4 |
| 20260903141805 | 95 | 322 | 3.0 | 6.0 | 0.00 | 0.00 | 0.00 | 40 | 1019.4 |
| 20260903141305 | 95 | 301 | 2.0 | 6.0 | 0.00 | 0.00 | 0.00 | 39 | 1019.4 |
| 20260903140805 | 95 | 315 | 4.0 | 9.0 | 0.00 | 0.00 | 0.00 | 39 | 1019.4 |
| 20260903140305 | 95 | 324 | 3.0 | 8.0 | 0.00 | 0.00 | 0.00 | 40 | 1019.3 |
| 20260903135306 | 96 | 316 | 3.0 | 7.0 | 0.00 | 0.00 | 0.00 | 37 | 1019.4 |
| 20260903134804 | 96 | 324 | 1.0 | 3.0 | 0.00 | 0.00 | 0.00 | 37 | 1019.4 |
| 20260903134304 | 95 | 318 | 3.0 | 8.0 | 0.00 | 0.00 | 0.00 | 37 | 1019.5 |
| 20260903133805 | 96 | 297 | 2.0 | 7.0 | 0.00 | 0.00 | 0.00 | 37 | 1019.5 |
| 20260903133304 | 96 | 301 | 3.0 | 6.0 | 0.00 | 0.00 | 0.00 | 38 | 1019.6 |
| 20260903132306 | 96 | 319 | 3.0 | 7.0 | 0.00 | 0.00 | 0.00 | 38 | 1019.6 |
| 20260903131805 | 95 | 315 | 2.0 | 6.0 | 0.00 | 0.00 | 0.00 | 37 | 1019.6 |
| 20260903131304 | 95 | 316 | 1.0 | 3.0 | 0.00 | 0.00 | 0.00 | 37 | 1019.6 |
| 20260903130804 | 95 | 321 | 4.0 | 9.0 | 0.00 | 0.00 | 0.00 | 38 | 1019.6 |
| 20260903130304 | 95 | 321 | 3.0 | 6.0 | 0.00 | 0.00 | 0.00 | 40 | 1019.7 |
| 20260903125804 | 94 | 313 | 2.0 | 7.0 | 0.00 | 0.00 | 0.00 | 40 | 1019.7 |
| 20260903125305 | 94 | 323 | 2.0 | 6.0 | 0.00 | 0.00 | 0.00 | 40 | 1019.8 |
| 20260903124805 | 94 | 317 | 2.0 | 7.0 | 0.00 | 0.00 | 0.00 | 41 | 1019.8 |
| 20260903124304 | 94 | 327 | 3.0 | 8.0 | 0.00 | 0.00 | 0.00 | 42 | 1019.7 |
| 20260903123805 | 94 | 311 | 3.0 | 9.0 | 0.00 | 0.00 | 0.00 | 41 | 1019.8 |
| 20260903122805 | 94 | 303 | 2.0 | 7.0 | 0.00 | 0.00 | 0.00 | 40 | 1019.8 |
| 20260903122306 | 94 | 316 | 3.0 | 8.0 | 0.00 | 0.00 | 0.00 | 40 | 1019.9 |
| 20260903121807 | 94 | 318 | 3.0 | 8.0 | 0.00 | 0.00 | 0.00 | 40 | 1019.9 |
| 20260903121304 | 94 | 312 | 3.0 | 10.0 | 0.00 | 0.00 | 0.00 | 40 | 1019.9 |
| 20260903120805 | 94 | 312 | 3.0 | 6.0 | 0.00 | 0.00 | 0.00 | 38 | 1019.9 |
| 20260903120305 | 94 | 313 | 2.0 | 7.0 | 0.00 | 0.00 | 0.00 | 38 | 1019.9 |
| 20260903115804 | 94 | 317 | 3.0 | 7.0 | 0.00 | 0.00 | 0.00 | 38 | 1019.9 |
| 20260903115306 | 95 | 320 | 3.0 | 6.0 | 0.00 | 0.00 | 0.00 | 37 | 1020.0 |
| 20260903114805 | 95 | 304 | 1.0 | 5.0 | 0.00 | 0.00 | 0.00 | 37 | 1020.0 |
| 20260903114305 | 95 | 311 | 2.0 | 3.0 | 0.00 | 0.00 | 0.00 | 36 | 1020.0 |
| 20260903113805 | 94 | 323 | 2.0 | 6.0 | 0.00 | 0.00 | 0.00 | 36 | 1020.1 |
| 20260903112806 | 94 | 316 | 2.0 | 6.0 | 0.00 | 0.00 | 0.00 | 36 | 1020.2 |
| 20260903111805 | 94 | 324 | 2.0 | 6.0 | 0.00 | 0.00 | 0.00 | 35 | 1020.3 |
| 20260903111304 | 94 | 314 | 1.0 | 5.0 | 0.00 | 0.00 | 0.00 | 35 | 1020.5 |
| 20260903110804 | 94 | 315 | 1.0 | 5.0 | 0.00 | 0.00 | 0.00 | 35 | 1020.5 |
| 20260903110304 | 94 | 317 | 3.0 | 6.0 | 0.00 | 0.00 | 0.00 | 35 | 1020.6 |
| 20260903105805 | 94 | 316 | 1.0 | 3.0 | 0.00 | 0.00 | 0.00 | 35 | 1020.6 |